Location: Burgberg
(50.1428°N, 11.0671°E)
Time: 22:58:12
(UTC+00:00)

Cosmos 158 Rocket - Pass Details

Date: 26 January 2020
Orbit: 698 x 794 km, 74.0° (Epoch: 18 February)

Event Time Altitude Azimuth Distance (km) Brightness Sun altitude
Rises 05:23:55 0° 215° (SW) 3,073 6.9 -15.0°
Reaches altitude 10° 05:26:15 10° 219° (SW) 2,163 6.1 -14.6°
Maximum altitude 05:31:02 57° 298° (WNW) 837 3.9 -13.9°
Drops below altitude 10° 05:35:58 10° 18° (NNE) 2,217 6.4 -13.1°
Sets 05:38:23 0° 22° (NNE) 3,156 7.3 -12.8°
